Location: Zilina
(49.2167°N, 18.7333°E)
Time: 13:35:28
(UTC+01:00)

ISS - Visible Passes

Search period start: 22 March 2019 00:00
Search period end: 01 April 2019 01:00
Orbit: 406 x 411 km, 51.6° (Epoch: 22 March)

Date Brightness Start Highest point End Pass type
(mag) Time Alt. Az. Time Alt. Az. Time Alt. Az.
22 Mar -2.9 19:38:12 10° SSW 19:40:45 32° SSE 19:40:45 32° SSE visible
23 Mar -2.4 18:47:43 10° SSW 18:50:19 22° SE 18:52:26 13° E visible
23 Mar -2.3 20:23:16 10° WSW 20:25:12 32° WSW 20:25:12 32° WSW visible
24 Mar -3.8 19:32:17 10° WSW 19:35:33 64° SSE 19:36:40 36° E visible
24 Mar -0.7 21:08:57 10° W 21:09:26 13° W 21:09:26 13° W visible
25 Mar -3.3 18:41:25 10° SW 18:44:33 42° SSE 18:47:42 10° ENE visible
25 Mar -3.3 20:17:48 10° W 20:20:44 58° NW 20:20:44 58° NW visible
26 Mar -3.8 19:26:39 10° WSW 19:29:57 79° NNW 19:31:55 22° ENE visible
26 Mar -1.2 21:03:28 10° WNW 21:04:40 20° WNW 21:04:40 20° WNW visible
27 Mar -3.3 20:12:19 10° W 20:15:33 54° N 20:15:45 53° NNE visible
28 Mar -3.4 19:21:07 10° W 19:24:24 59° N 19:26:45 17° ENE visible
28 Mar -1.6 20:57:55 10° WNW 20:59:30 25° WNW 20:59:30 25° WNW visible
29 Mar -3.4 20:06:45 10° WNW 20:10:01 56° N 20:10:27 50° NE visible
30 Mar -3.2 19:15:34 10° WNW 19:18:49 53° N 19:21:22 15° ENE visible
30 Mar -2.0 20:52:14 10° WNW 20:54:05 31° WNW 20:54:05 31° WNW visible
31 Mar -3.8 21:01:05 10° WNW 21:04:24 71° NNE 21:04:59 54° ENE visible
